GW4127 Weather Reports


Display with metric or nautical units.
time (UTC)temp
F
wind
direction
speed
MPH
gust
MPH
rain 1hr
in
rain 24hr
in
rain mn
in
humidity
%
barometer
mb
20260502123005 59 301 5.0 12.0 0.00 0.10 0.10 63 1026.4
20260502121558 59 301 3.0 13.0 0.00 0.10 0.10 66 1026.4
20260502114515 57 301 6.0 17.0 0.00 0.10 0.10 69 1026.6
20260502113008 57 301 4.0 12.0 0.00 0.10 0.10 69 1026.9
20260502111501 57 301 4.0 13.0 0.00 0.10 0.10 69 1026.9
20260502110050 56 301 5.0 12.0 0.00 0.10 0.10 71 1027.1
20260502104540 56 301 2.0 7.0 0.00 0.10 0.10 74 1027.2
20260502103014 55 301 5.0 14.0 0.00 0.10 0.10 78 1027.1
20260502101500 55 301 2.0 11.0 0.00 0.10 0.10 81 1027.2
20260502071506 49 301 1.0 6.0 0.00 0.10 0.10 98 1027.3
20260502070056 50 301 0.0 3.0 0.01 0.10 0.10 98 1027.5
20260502064559 50 301 0.0 4.0 0.02 0.10 0.10 98 1027.4
20260502064500 50 301 1.0 5.0 0.02 0.10 0.10 98 1027.3
20260502063113 50 301 0.0 7.0 0.03 0.10 0.10 98 1027.4
20260502061555 50 301 0.0 5.0 0.03 0.10 0.10 98 1027.3
20260502060055 50 301 0.0 6.0 0.03 0.09 0.09 98 1027.3
20260502054549 50 301 0.0 3.0 0.06 0.08 0.08 98 1027.1
20260502053021 50 301 0.0 4.0 0.06 0.07 0.07 98 1027.2
20260502051510 50 301 0.0 5.0 0.06 0.07 0.07 98 1027.1
20260502050058 51 301 1.0 8.0 0.06 0.06 0.06 98 1026.9
20260502044551 51 301 1.0 6.0 0.02 0.02 0.02 98 1026.9
20260502043046 51 301 3.0 8.0 0.01 0.01 0.01 98 1026.7
20260502041538 51 301 1.0 8.0 0.01 0.01 0.01 98 1026.7
20260502040019 51 301 0.0 7.0 0.00 0.00 0.00 98 1026.7
20260502034523 52 301 1.0 4.0 0.00 0.00 0.00 98 1026.7
20260502033010 52 301 1.0 5.0 0.00 0.00 0.00 98 1026.7
20260502031514 52 301 1.0 5.0 0.00 0.00 0.00 98 1026.9
20260502030110 52 301 1.0 6.0 0.00 0.00 0.00 98 1027.0
20260502030002 52 301 2.0 6.0 0.00 0.00 0.00 98 1026.9
20260502024550 52 301 1.0 7.0 0.00 0.00 0.00 98 1026.8
20260502023043 52 301 0.0 5.0 0.00 0.00 0.00 98 1026.8
20260502021542 52 301 1.0 4.0 0.00 0.00 0.00 98 1026.9
20260502020037 52 301 0.0 4.0 0.00 0.00 0.00 98 1027.2
20260502014524 52 301 1.0 4.0 0.00 0.00 0.00 98 1027.4
20260502013016 52 301 0.0 5.0 0.00 0.00 0.00 97 1027.5
20260502011515 52 301 0.0 3.0 0.00 0.00 0.00 97 1027.5
20260502010000 52 301 0.0 3.0 0.00 0.00 0.00 97 1027.7
20260502004557 52 301 1.0 5.0 0.00 0.00 0.00 97 1027.6
20260502003054 52 301 3.0 8.0 0.00 0.00 0.00 97 1027.7
20260502001543 51 301 3.0 9.0 0.00 0.00 0.00 97 1028.1
20260502000020 51 301 1.0 10.0 0.00 0.00 0.00 97 1028.3
20260501234508 51 301 0.0 5.0 0.00 0.00 0.00 97 1028.6
20260501233005 51 301 0.0 6.0 0.00 0.00 0.00 97 1028.6
20260501231550 51 301 0.0 4.0 0.00 0.00 0.00 97 1028.6
20260501230043 51 301 0.0 5.0 0.00 0.00 0.00 96 1028.5
20260501224551 51 301 1.0 5.0 0.00 0.00 0.00 96 1028.5
20260501223046 51 301 0.0 4.0 0.00 0.00 0.00 96 1028.5
20260501221514 51 301 1.0 5.0 0.00 0.00 0.00 96 1028.5
20260501220010 51 301 0.0 5.0 0.00 0.00 0.00 96 1028.5
20260501214512 51 301 0.0 6.0 0.00 0.00 0.00 96 1028.4
20260501213108 51 301 2.0 5.0 0.00 0.00 0.00 96 1028.5
20260501211601 50 301 1.0 4.0 0.00 0.00 0.00 95 1028.4
20260501210048 50 301 0.0 3.0 0.00 0.00 0.00 95 1028.4
20260501204534 50 301 2.0 4.0 0.00 0.00 0.00 95 1028.4
20260501203018 50 301 0.0 5.0 0.00 0.00 0.00 94 1028.4
20260501201506 51 301 2.0 7.0 0.00 0.00 0.00 94 1028.2
20260501200053 51 301 1.0 7.0 0.00 0.00 0.00 93 1028.1
20260501194550 51 301 2.0 6.0 0.00 0.00 0.00 92 1028.2
20260501193045 51 301 3.0 11.0 0.00 0.00 0.00 91 1028.1
20260501191525 52 301 5.0 10.0 0.00 0.00 0.00 89 1027.8
20260501190017 53 301 5.0 10.0 0.00 0.00 0.00 86 1027.7
20260501184507 54 301 0.0 5.0 0.00 0.00 0.00 85 1027.5
20260501183058 54 301 0.0 6.0 0.00 0.00 0.00 84 1027.4
20260501181600 55 301 1.0 7.0 0.00 0.00 0.00 82 1027.6
20260501180033 56 301 0.0 7.0 0.00 0.00 0.00 82 1027.3
20260501174516 56 301 1.0 4.0 0.00 0.00 0.00 80 1027.2
20260501173010 57 301 1.0 5.0 0.00 0.00 0.00 79 1027.2
20260501171606 57 301 0.0 5.0 0.00 0.00 0.00 79 1027.2
20260501170038 58 301 2.0 4.0 0.00 0.00 0.00 78 1027.0
20260501164555 59 301 1.0 5.0 0.00 0.00 0.00 76 1027.1
20260501163029 58 301 3.0 10.0 0.00 0.00 0.00 76 1027.0
20260501161529 59 301 2.0 6.0 0.00 0.00 0.00 74 1026.9
20260501160025 60 301 4.0 10.0 0.00 0.00 0.00 74 1026.9
20260501154515 61 301 2.0 8.0 0.00 0.00 0.00 72 1026.8
20260501153010 62 301 3.0 7.0 0.00 0.00 0.00 71 1026.6
20260501151509 63 300 2.0 8.0 0.00 0.00 0.00 71 1026.6
20260501150057 63 301 4.0 8.0 0.00 0.00 0.00 71 1026.6